Waarnemingen

Advertentie
Mijn weer
Brüssel, België (6451): temperatuur & dauwpunt: 15.10.2017 21:00:00 - 21.10.2017 21:00:00 (CEST)Brüssel, België (6451): windsnelheid & windstoten: 15.10.2017 21:00:00 - 21.10.2017 21:00:00 (CEST)Brüssel, België (6451): windrichting: 15.10.2017 21:00:00 - 21.10.2017 21:00:00 (CEST)Brüssel, België (6451): luchtdruk: 15.10.2017 21:00:00 - 21.10.2017 21:00:00 (CEST)Brüssel, België (6451): zicht: 15.10.2017 21:00:00 - 21.10.2017 21:00:00 (CEST)
Datum & Tijd tt [°C] td [°C] ff [km/u] ff [kn] fx [km/u] fx [kn] dd ppp [hPa] vv [km]
21.10.2017 21:00:00 12,8 6,9 18 10 29 16 ZZW 1010,5 10
21.10.2017 20:00:00 12,8 8,2 15 8 - - ZZW 1010,3 10
21.10.2017 19:00:00 14,2 7,6 22 12 36 19 ZZW 1009,9 10
21.10.2017 18:00:00 14,9 8,1 24 13 47 25 ZW 1010,0 10
21.10.2017 17:00:00 15,6 8,1 24 13 - - ZW 1010,2 10
21.10.2017 16:00:00 16,1 7,6 34 18 54 29 ZW 1010,2 10
21.10.2017 15:00:00 15,6 7,5 28 15 43 23 WZW 1010,5 10
21.10.2017 14:00:00 15,9 9,6 24 13 - - WZW 1010,5 10
21.10.2017 13:00:00 16,1 10,4 28 15 50 27 ZW 1010,8 10
21.10.2017 12:00:00 15,5 12,1 21 11 43 23 ZW 1010,3 10
21.10.2017 11:00:00 15,2 13,4 18 10 - - ZW 1010,5 10
21.10.2017 10:00:00 14,6 12,6 22 12 36 19 ZZW 1009,7 10
21.10.2017 09:00:00 13,1 11,8 16 9 32 18 Z 1009,6 10
21.10.2017 08:00:00 12,1 10,8 22 12 - - Z 1009,4 6
21.10.2017 07:00:00 12,3 9,3 22 12 32 18 ZZW 1009,7 10
21.10.2017 06:00:00 10,4 7,9 13 7 25 14 Z 1009,5 10
21.10.2017 05:00:00 10,5 7,8 16 9 - - Z 1010,1 10
21.10.2017 04:00:00 10,8 7,7 18 10 29 16 Z 1011,2 10
21.10.2017 03:00:00 10,9 7,9 15 8 25 14 Z 1012,1 10
21.10.2017 02:00:00 10,8 7,6 15 8 - - Z 1012,4 10
21.10.2017 01:00:00 10,1 6,8 13 7 18 10 Z 1012,9 10
21.10.2017 00:00:00 10,5 7,1 11 6 18 10 Z 1013,1 10
20.10.2017 23:00:00 10,7 7,1 11 6 - - Z 1013,5 10
20.10.2017 22:00:00 11,3 7,7 15 8 22 12 ZZW 1013,5 10
20.10.2017 21:00:00 11,7 7,7 15 8 25 14 ZZW 1013,4 10
20.10.2017 20:00:00 12,7 8,0 15 8 - - ZW 1013,3 10
20.10.2017 19:00:00 12,7 8,0 18 10 32 18 ZW 1012,5 10
20.10.2017 18:00:00 13,6 8,1 22 12 43 23 ZW 1012,0 10
20.10.2017 17:00:00 14,0 8,5 26 14 - - WZW 1011,7 10
20.10.2017 16:00:00 13,0 9,4 24 13 47 25 ZW 1011,2 10
20.10.2017 15:00:00 12,8 9,1 29 16 50 27 ZW 1011,0 4,8
20.10.2017 14:00:00 13,3 9,2 35 19 - - ZW 1010,3 10
20.10.2017 13:00:00 13,1 9,2 34 18 50 27 ZW 1010,1 10
20.10.2017 12:00:00 13,0 9,1 29 16 47 25 ZZW 1009,5 10
20.10.2017 11:00:00 13,0 9,0 26 14 - - ZW 1009,1 10
20.10.2017 10:00:00 13,0 9,7 26 14 43 23 ZW 1008,3 10
20.10.2017 09:00:00 13,0 10,7 21 11 40 21 ZW 1007,3 10
20.10.2017 08:00:00 13,7 11,9 24 13 - - ZZW 1006,5 10
20.10.2017 07:00:00 14,0 12,5 26 14 36 19 Z 1005,7 4,0
20.10.2017 06:00:00 15,9 11,9 22 12 32 18 Z 1005,8 10
20.10.2017 05:00:00 15,2 11,6 15 8 - - Z 1006,5 10
20.10.2017 04:00:00 15,8 11,8 15 8 29 16 Z 1006,7 10
20.10.2017 03:00:00 16,2 11,2 15 8 25 14 Z 1007,1 10
20.10.2017 02:00:00 17,3 11,1 16 9 - - ZZW 1007,3 10
20.10.2017 01:00:00 17,4 10,8 15 8 25 14 Z 1007,0 10
20.10.2017 00:00:00 18,0 11,4 13 7 25 14 Z 1007,2 10
19.10.2017 23:00:00 18,2 12,0 15 8 - - Z 1007,5 10
19.10.2017 22:00:00 18,1 12,7 15 8 22 12 ZZO 1007,3 10
19.10.2017 21:00:00 18,3 13,2 11 6 22 12 ZZO 1007,7 10
19.10.2017 20:00:00 18,9 13,7 11 6 - - ZZO 1007,9 10
19.10.2017 19:00:00 19,5 13,2 13 7 25 14 Z 1008,0 10
19.10.2017 18:00:00 20,2 12,8 15 8 36 19 Z 1007,8 10
19.10.2017 17:00:00 21,2 12,9 21 11 - - Z 1007,7 10
19.10.2017 16:00:00 20,6 14,0 15 8 25 14 ZZO 1008,0 10
19.10.2017 15:00:00 18,8 12,7 18 10 29 16 ZZO 1008,3 10
19.10.2017 14:00:00 19,3 12,7 21 11 - - Z 1009,2 10
19.10.2017 13:00:00 18,3 12,5 18 10 25 14 ZZO 1010,0 10
19.10.2017 12:00:00 17,6 12,6 13 7 22 12 ZO 1010,0 10
19.10.2017 11:00:00 15,5 11,3 13 7 - - ZZO 1010,5 10
19.10.2017 10:00:00 14,0 10,9 9 5 14 8 ZO 1010,9 10
19.10.2017 09:00:00 12,1 10,0 11 6 18 10 Z 1010,7 10
19.10.2017 08:00:00 11,0 10,0 9 5 - - ZZO - 10
19.10.2017 07:00:00 9,8 8,8 2 1 11 6 NNW 1010,8 10
19.10.2017 06:00:00 11,2 9,6 9 5 11 6 ZZO 1010,8 10
19.10.2017 05:00:00 11,1 9,9 2 1 - - - 1011,4 10
19.10.2017 04:00:00 12,3 10,7 9 5 11 6 Z 1011,8 10
19.10.2017 03:00:00 12,8 11,1 9 5 11 6 Z 1012,1 10
19.10.2017 02:00:00 13,0 11,0 9 5 - - Z 1012,3 10
19.10.2017 01:00:00 12,4 11,0 8 4 11 6 Z 1012,4 10
19.10.2017 00:00:00 13,8 11,9 9 5 11 6 Z 1012,6 10
18.10.2017 23:00:00 14,2 12,5 8 4 - - Z 1012,7 10
18.10.2017 22:00:00 14,6 12,8 9 5 11 6 Z 1012,5 10
18.10.2017 21:00:00 14,1 12,6 8 4 11 6 Z 1012,6 10
18.10.2017 20:00:00 15,7 13,4 4 2 - - Z 1012,4 10
18.10.2017 19:00:00 15,6 10,6 5 3 11 6 ZZW 1012,3 10
18.10.2017 18:00:00 18,5 12,7 9 5 11 6 ZZW 1012,2 10
18.10.2017 17:00:00 20,3 13,5 8 4 - - ZZW 1012,3 10
18.10.2017 16:00:00 21,1 13,5 9 5 22 12 ZW 1012,2 10
18.10.2017 15:00:00 20,6 13,1 11 6 22 12 ZW 1012,5 10
18.10.2017 14:00:00 20,0 12,7 8 4 - - ZW 1013,0 10
18.10.2017 13:00:00 18,0 11,5 9 5 14 8 Z 1013,3 10
18.10.2017 12:00:00 16,4 11,1 8 4 14 8 Z 1013,6 10
18.10.2017 11:00:00 13,7 12,1 8 4 - - Z 1013,7 10
18.10.2017 10:00:00 10,8 9,6 2 1 4 2 - 1014,0 4,0
18.10.2017 09:00:00 9,7 9,5 0 0 7 4 N 1013,8 0,3
18.10.2017 08:00:00 9,7 9,2 4 2 - - - 1013,5 0,3
18.10.2017 07:00:00 10,7 10,2 8 4 11 6 O 1013,9 0,2
18.10.2017 06:00:00 10,6 10,4 4 2 7 4 NO 1014,5 0,2
18.10.2017 05:00:00 9,6 9,4 4 2 - - NO 1014,5 0,5
18.10.2017 04:00:00 9,2 8,5 8 4 7 4 ZO 1014,7 3,0
18.10.2017 03:00:00 10,6 9,8 4 2 7 4 O 1015,4 4,8
18.10.2017 02:00:00 10,6 9,7 5 3 - - O 1015,8 6
18.10.2017 01:00:00 10,7 9,7 4 2 7 4 NO 1016,5 9
18.10.2017 00:00:00 12,1 10,5 5 3 7 4 OZO 1017,0 9
17.10.2017 23:00:00 12,2 10,5 5 3 - - O 1017,6 9
17.10.2017 22:00:00 12,5 10,9 4 2 7 4 ONO 1018,0 9
17.10.2017 21:00:00 13,7 11,3 5 3 11 6 O 1018,4 9
17.10.2017 20:00:00 13,7 11,8 5 3 - - NO 1018,9 9
17.10.2017 19:00:00 14,5 12,3 4 2 7 4 O 1018,8 9
17.10.2017 18:00:00 15,5 13,3 2 1 7 4 NO 1019,3 10
17.10.2017 17:00:00 16,1 13,2 4 2 - - - 1019,9 10
17.10.2017 16:00:00 16,8 12,9 4 2 11 6 - 1020,4 10
17.10.2017 15:00:00 17,3 12,5 4 2 11 6 WNW 1021,1 10
17.10.2017 14:00:00 16,7 11,8 4 2 - - - 1021,8 10
17.10.2017 13:00:00 16,1 11,8 8 4 11 6 ZW 1022,3 10
17.10.2017 12:00:00 15,5 12,7 5 3 11 6 WZW 1022,6 8
17.10.2017 11:00:00 14,4 12,8 5 3 - - ZZW 1022,8 6
17.10.2017 10:00:00 13,0 11,8 5 3 11 6 Z 1022,9 6
17.10.2017 09:00:00 11,8 10,7 8 4 7 4 ZZW 1022,8 6
17.10.2017 08:00:00 11,6 10,6 8 4 - - Z 1022,6 7
17.10.2017 07:00:00 12,2 11,1 5 3 7 4 ZZW 1022,5 10
17.10.2017 06:00:00 13,8 12,5 5 3 11 6 Z 1022,4 10
17.10.2017 05:00:00 15,1 12,8 8 4 - - WZW 1022,2 10
17.10.2017 04:00:00 15,0 13,1 8 4 14 8 WZW 1022,0 10
17.10.2017 03:00:00 16,0 13,6 9 5 14 8 WZW 1021,7 10
17.10.2017 02:00:00 16,0 13,4 9 5 - - WZW 1021,5 10
17.10.2017 01:00:00 15,4 12,8 9 5 14 8 ZZW 1021,2 10
17.10.2017 00:00:00 16,3 13,3 11 6 18 10 Z 1020,9 10
16.10.2017 23:00:00 17,1 13,2 13 7 - - Z 1020,7 10
16.10.2017 22:00:00 18,7 14,1 16 9 25 14 Z 1020,3 10
16.10.2017 21:00:00 18,6 14,3 15 8 25 14 Z 1020,3 10
16.10.2017 20:00:00 19,9 13,9 18 10 - - Z 1019,9 10
16.10.2017 19:00:00 20,5 13,5 13 7 22 12 Z 1019,6 10
16.10.2017 18:00:00 21,6 13,7 13 7 25 14 Z 1019,5 10
16.10.2017 17:00:00 23,9 14,6 15 8 - - Z 1019,3 10
16.10.2017 16:00:00 24,7 14,4 18 10 29 16 Z 1019,7 10
16.10.2017 15:00:00 24,3 15,5 15 8 22 12 Z 1020,4 10
16.10.2017 14:00:00 24,0 15,3 13 7 - - Z 1021,0 10
16.10.2017 13:00:00 22,6 15,6 15 8 22 12 Z 1021,5 10
16.10.2017 12:00:00 21,1 15,1 16 9 25 14 Z 1021,8 10
16.10.2017 11:00:00 19,3 14,6 18 10 - - Z 1021,8 10
16.10.2017 10:00:00 17,6 13,8 15 8 22 12 Z 1021,7 10
16.10.2017 09:00:00 16,0 13,5 13 7 18 10 Z 1021,3 10
16.10.2017 08:00:00 16,1 13,0 9 5 - - Z 1021,3 10
16.10.2017 07:00:00 16,3 13,8 16 9 22 12 Z 1021,0 10
16.10.2017 06:00:00 15,9 13,7 11 6 22 12 Z 1021,2 10
16.10.2017 05:00:00 15,9 13,9 8 4 - - Z 1021,4 10
16.10.2017 04:00:00 16,5 13,5 11 6 25 14 ZZW 1021,1 10
16.10.2017 03:00:00 16,6 13,5 18 10 25 14 Z 1021,2 10
16.10.2017 02:00:00 16,6 13,6 18 10 - - Z 1021,2 10
16.10.2017 01:00:00 16,7 13,6 16 9 25 14 ZZW 1021,4 10
16.10.2017 00:00:00 16,9 13,6 21 11 29 16 ZZW 1021,4 10
15.10.2017 23:00:00 17,0 13,3 18 10 - - Z 1021,4 10
15.10.2017 22:00:00 17,1 13,2 21 11 29 16 Z 1021,4 10
15.10.2017 21:00:00 16,9 12,6 15 8 18 10 ZZW 1021,2 10

tt = temperatuur
td = dauwpunt
ff = windsnelheid
fx = windstoten
dd = windrichting
ppp = luchtdruk
vv = zicht

Weerstations in de omgeving